Location: Santa Clara
(37.3540°N, 121.9540°W)
Time: 17:03:35
(UTC-08:00)

ISS - Pass Details

Date: 25 January 2026
Orbit: 413 x 429 km, 51.6° (Epoch: 10 February)

Event Time Altitude Azimuth Distance (km) Brightness Sun altitude
Rises 19:04:50 0° 318° (NW) 2,367 0.5 -19.9°
Reaches altitude 10° 19:07:09 10° 332° (NNW) 1,504 -0.7 -20.3°
Enters shadow 19:08:32 19° 350° (N) 1,080 -1.7 -20.6°
